Location: Unspecified
(41.5516°N, 88.1098°W)
Time: 18:34:06
(UTC-05:00)

Cosmos 2058 - Visible Passes

Search period start: 01 September 2014 00:00
Search period end: 11 September 2014 00:00
Orbit: 570 x 595 km, 82.5° (Epoch: 01 September)

Date Brightness Start Highest point End Pass type
(mag) Time Alt. Az. Time Alt. Az. Time Alt. Az.
01 Sep 6.2 23:45:24 10° NNW 23:45:30 11° NNW 23:45:30 11° NNW visible
03 Sep 5.7 22:20:20 10° NNE 22:20:37 11° NNE 22:20:37 11° NNE visible
04 Sep 5.6 22:25:51 10° N 22:26:23 13° NNE 22:26:23 13° NNE visible
05 Sep 5.6 22:31:29 10° N 22:32:10 14° N 22:32:10 14° N visible
06 Sep 5.6 22:37:11 10° N 22:37:57 15° N 22:37:57 15° N visible
07 Sep 5.7 22:42:59 10° NNW 22:43:45 15° NNW 22:43:45 15° NNW visible
08 Sep 5.8 22:48:51 10° NNW 22:49:33 15° NNW 22:49:33 15° NNW visible
09 Sep 5.3 21:18:32 10° NNE 21:18:59 12° NNE 21:18:59 12° NNE visible
09 Sep 6.0 22:54:49 10° NNW 22:55:23 13° NNW 22:55:23 13° NNW visible
10 Sep 5.2 21:23:51 10° NNE 21:24:49 15° NNE 21:24:49 15° NNE visible
10 Sep 6.1 23:00:53 10° NW 23:01:13 12° NW 23:01:13 12° NW visible
